Weather History for Wooster, OH

Change the Weather History Date:

Thursday, March 21, 2013

  Actual Average Record
Temperature  
Mean Temperature 22 °F -  
Max Temperature 28 °F 44 °F 80 °F (2012)
Min Temperature 15 °F 28 °F 15 °F (2013)
Degree Days  
Heating Degree Days 44    
Moisture  
Dew Point 16 °F    
Average Humidity 73    
Maximum Humidity 80    
Minimum Humidity 66    
Precipitation  
Precipitation 0.00 in - - ()
Sea Level Pressure  
Sea Level Pressure 29.91 in    
Wind  
Wind Speed 11 mph (WNW)    
Max Wind Speed 20 mph    
Max Gust Speed 24 mph    
Visibility 8 miles    
Events Snow    
Averages and records for this station are not official NWS values.
T = Trace of Precipitation, MM = Missing Value Source: NWS Daily Summary

Daily Weather History Graph

Daily Weather History Graph

Search for Another Location

Airport:

Trip Planner

Search our weather history database for the weather conditions in past years. The results will help you decide how hot, cold, wet, or windy it might be!

Date:

Astronomy

Mar. 21, 2013 Rise Set
Actual Time 7:28 AM EDT 7:41 PM EDT
Civil Twilight 7:01 AM EDT 8:08 PM EDT
Nautical Twilight 6:29 AM EDT 8:40 PM EDT
Astronomical Twilight 5:56 AM EDT 9:13 PM EDT
Moon 2:07 PM EDT (3/21) 3:51 AM EDT (3/21)
Length of Visible Light 13h 06m
Length of Day
12h 12m
Waxing Gibbous, 68% of the Moon is Illuminated
Mar 21
Waxing Gibbous
Mar 27
Full
Apr 3
Last Quarter
Apr 10
New
Apr 18
First Quarter

Hourly Weather History & Observations

Time (EDT) Temp. Windchill Dew Point Humidity Pressure Visibility Wind Dir Wind Speed Gust Speed Precip Events Conditions
12:56 AM 18.0 °F 9.8 °F 10.9 °F 74% 29.95 in 10.0 mi WNW 5.8 mph - N/A   Partly Cloudy
1:56 AM 19.0 °F 7.5 °F 10.0 °F 68% 29.95 in 10.0 mi WNW 10.4 mph - N/A   Mostly Cloudy
2:56 AM 17.1 °F 5.8 °F 9.0 °F 71% 29.94 in 10.0 mi WNW 9.2 mph - N/A   Clear
3:56 AM 16.0 °F 5.3 °F 9.0 °F 74% 29.93 in 10.0 mi West 8.1 mph - N/A   Clear
4:56 AM 16.0 °F 4.4 °F 9.0 °F 74% 29.92 in 10.0 mi West 9.2 mph - N/A   Clear
5:56 AM 15.1 °F 3.3 °F 9.0 °F 77% 29.91 in 10.0 mi West 9.2 mph - N/A   Clear
6:56 AM 15.1 °F 5.2 °F 9.0 °F 77% 29.92 in 10.0 mi West 6.9 mph - N/A   Clear
7:56 AM 15.1 °F 5.2 °F 10.0 °F 80% 29.91 in 10.0 mi West 6.9 mph - N/A   Clear
8:56 AM 17.1 °F 3.6 °F 10.9 °F 77% 29.92 in 10.0 mi WNW 12.7 mph - N/A   Partly Cloudy
9:56 AM 19.0 °F 6.8 °F 10.9 °F 71% 29.92 in 10.0 mi WNW 11.5 mph - N/A   Mostly Cloudy
10:26 AM 19.4 °F 7.2 °F 10.4 °F 68% 29.87 in 10.0 mi West 11.5 mph - N/A   Scattered Clouds
10:56 AM 21.0 °F 8.6 °F 12.0 °F 68% 29.93 in 10.0 mi WNW 12.7 mph 19.6 mph N/A   Overcast
11:56 AM 23.0 °F 11.1 °F 15.1 °F 72% 29.93 in 9.0 mi WNW 12.7 mph - 0.00 in   Overcast
12:56 PM 24.1 °F 12.5 °F 17.1 °F 75% 29.93 in 5.0 mi WNW 12.7 mph - 0.00 in Snow Light Snow
1:56 PM 25.0 °F 13.6 °F 15.1 °F 66% 29.91 in 10.0 mi West 12.7 mph - 0.00 in   Overcast
2:17 PM 26.6 °F 15.7 °F 17.6 °F 69% 29.86 in 7.0 mi WNW 12.7 mph 20.7 mph 0.00 in Snow Light Snow
2:56 PM 26.1 °F 14.0 °F 19.0 °F 75% 29.91 in 6.0 mi WNW 15.0 mph - 0.00 in Snow Light Snow
3:27 PM 26.6 °F 15.2 °F 19.4 °F 74% 29.86 in 8.0 mi WNW 13.8 mph - 0.00 in Snow Light Snow
3:56 PM 27.0 °F 16.7 °F 19.9 °F 75% 29.91 in 8.0 mi West 11.5 mph 20.7 mph 0.00 in Snow Light Snow
4:08 PM 26.6 °F 15.2 °F 19.4 °F 74% 29.86 in 9.0 mi WNW 13.8 mph - 0.00 in   Overcast
4:19 PM 26.6 °F 15.7 °F 19.4 °F 74% 29.86 in 9.0 mi West 12.7 mph - 0.00 in Snow Light Snow
4:27 PM 26.6 °F 14.3 °F 19.4 °F 74% 29.86 in 9.0 mi WNW 16.1 mph 20.7 mph 0.00 in   Overcast
4:34 PM 28.4 °F 18.5 °F 19.4 °F 69% 29.87 in 10.0 mi WNW 11.5 mph - 0.00 in   Overcast
4:56 PM 28.0 °F 18.6 °F 19.0 °F 69% 29.92 in 8.0 mi WNW 10.4 mph - 0.00 in Snow Light Snow
5:56 PM 28.0 °F 14.9 °F 19.9 °F 72% 29.92 in 10.0 mi WNW 19.6 mph - 0.00 in   Overcast
6:37 PM 26.6 °F 13.4 °F 19.4 °F 74% 29.88 in 2.0 mi West 18.4 mph 24.2 mph 0.00 in Snow Light Snow
6:39 PM 26.6 °F 14.3 °F 21.2 °F 80% 29.88 in 1.8 mi West 16.1 mph 24.2 mph 0.00 in Snow Light Snow
6:50 PM 26.6 °F 15.2 °F 21.2 °F 80% 29.88 in 2.5 mi WNW 13.8 mph - 0.00 in Snow Light Snow
6:56 PM 27.0 °F 15.6 °F 21.0 °F 78% 29.93 in 4.0 mi West 13.8 mph - 0.00 in Snow Light Snow
7:56 PM 27.0 °F 16.1 °F 19.0 °F 72% 29.94 in 10.0 mi WNW 12.7 mph - 0.00 in   Overcast
8:56 PM 27.0 °F 16.1 °F 19.9 °F 75% 29.94 in 7.0 mi West 12.7 mph - 0.00 in Snow Light Snow
9:56 PM 27.0 °F 15.2 °F 19.9 °F 75% 29.95 in 6.0 mi West 15.0 mph - 0.00 in Snow Light Snow
10:56 PM 27.0 °F 15.2 °F 19.0 °F 72% 29.95 in 5.0 mi West 15.0 mph - 0.00 in Snow Light Snow
11:56 PM 26.1 °F 14.0 °F 19.0 °F 75% 29.96 in 10.0 mi West 15.0 mph - 0.00 in   Overcast